Location: Arthez
(43.0833°N, 0.2500°W)
Time: 07:39:37
(UTC+00:00)

Okean 1-7 Rocket - Pass Details

Date: 23 October 2021
Orbit: 617 x 648 km, 82.5° (Epoch: 02 December)

Event Time Altitude Azimuth Distance (km) Brightness Sun altitude
Rises 17:31:02 0° 1° (N) 2,907 6.9 -5.4°
Reaches altitude 10° 17:33:28 10° 12° (NNE) 2,000 6.0 -5.8°
Maximum altitude 17:37:25 31° 75° (ENE) 1,103 4.3 -6.5°
Drops below altitude 10° 17:41:22 10° 138° (SE) 2,001 5.9 -7.2°
Sets 17:43:48 0° 149° (SSE) 2,909 6.8 -7.7°
